TimeEDT,TemperatureF,Dew PointF,Humidity,Sea Level PressureIn,VisibilityMPH,Wind Direction,Wind SpeedMPH,Gust SpeedMPH,PrecipitationIn,Events,Conditions,WindDirDegrees,DateUTC
12:49 AM,71.6,69.8,94,30.20,10.0,Calm,Calm,-,N/A,,Mostly Cloudy,0,2012-10-04 04:49:00
12:55 AM,70.7,70.2,98,30.21,10.0,Calm,Calm,-,0.00,,Scattered Clouds,0,2012-10-04 04:55:00
1:24 AM,69.8,69.8,100,30.20,10.0,West,3.5,-,N/A,,Light Drizzle,270,2012-10-04 05:24:00
1:55 AM,70.2,70.2,100,30.20,10.0,Calm,Calm,-,0.00,,Partly Cloudy,0,2012-10-04 05:55:00
1:58 AM,69.8,69.8,100,30.19,9.0,ESE,3.5,-,N/A,,Partly Cloudy,110,2012-10-04 05:58:00
2:23 AM,69.8,69.8,100,30.20,10.0,Calm,Calm,-,N/A,Rain,Light Rain,0,2012-10-04 06:23:00
2:38 AM,69.8,69.8,100,30.21,10.0,Calm,Calm,-,N/A,,Partly Cloudy,0,2012-10-04 06:38:00
2:55 AM,69.8,69.8,100,30.21,10.0,SW,3.5,-,0.01,,Mostly Cloudy,230,2012-10-04 06:55:00
3:55 AM,69.8,69.8,100,30.21,10.0,West,3.5,-,N/A,,Scattered Clouds,260,2012-10-04 07:55:00
4:06 AM,69.8,69.8,100,30.20,10.0,WNW,4.6,-,N/A,,Light Drizzle,290,2012-10-04 08:06:00
4:15 AM,69.8,68.0,94,30.20,10.0,West,4.6,-,N/A,,Mostly Cloudy,280,2012-10-04 08:15:00
4:55 AM,69.1,68.2,97,30.20,10.0,NW,4.6,-,0.00,,Mostly Cloudy,310,2012-10-04 08:55:00
5:38 AM,68.0,68.0,100,30.21,10.0,WNW,4.6,-,N/A,Rain,Light Rain,300,2012-10-04 09:38:00
5:55 AM,68.9,68.5,99,30.22,5.0,Calm,Calm,-,0.02,Rain,Rain,0,2012-10-04 09:55:00
6:01 AM,68.0,68.0,100,30.22,5.0,West,4.6,-,N/A,Rain,Rain,270,2012-10-04 10:01:00
6:27 AM,68.0,68.0,100,30.23,10.0,Calm,Calm,-,N/A,Rain,Light Rain,0,2012-10-04 10:27:00
6:34 AM,68.0,68.0,100,30.23,10.0,NW,3.5,-,N/A,Rain,Light Rain,310,2012-10-04 10:34:00
6:55 AM,68.2,68.2,100,30.21,9.0,North,3.5,-,0.03,Rain,Light Rain,10,2012-10-04 10:55:00
7:32 AM,68.0,68.0,100,30.23,10.0,WNW,3.5,-,N/A,,Overcast,290,2012-10-04 11:32:00
7:55 AM,68.0,68.0,100,30.24,10.0,Calm,Calm,-,0.00,,Overcast,0,2012-10-04 11:55:00
8:55 AM,68.7,68.4,99,30.25,10.0,Calm,Calm,-,N/A,,Overcast,0,2012-10-04 12:55:00
9:55 AM,70.3,67.6,91,30.27,10.0,NNW,4.6,-,N/A,,Overcast,340,2012-10-04 13:55:00
10:28 AM,71.6,68.0,88,30.26,10.0,WNW,3.5,-,N/A,Rain,Light Rain,290,2012-10-04 14:28:00
10:55 AM,70.7,67.6,90,30.27,7.0,NW,5.8,-,0.01,Rain,Light Rain,310,2012-10-04 14:55:00
11:21 AM,69.8,66.2,88,30.27,10.0,NNW,5.8,-,N/A,,Overcast,330,2012-10-04 15:21:00
11:55 AM,70.3,67.3,90,30.27,10.0,Calm,Calm,-,0.00,,Overcast,0,2012-10-04 15:55:00
12:29 PM,69.8,68.0,94,30.27,10.0,West,4.6,-,N/A,Rain,Light Rain,280,2012-10-04 16:29:00
12:40 PM,71.6,68.0,88,30.26,10.0,WNW,3.5,-,N/A,,Overcast,290,2012-10-04 16:40:00
12:55 PM,72.0,68.0,87,30.25,10.0,West,3.5,-,N/A,,Light Drizzle,280,2012-10-04 16:55:00
1:31 PM,73.4,68.0,83,30.24,10.0,West,4.6,-,N/A,,Mostly Cloudy,260,2012-10-04 17:31:00
1:37 PM,73.4,68.0,83,30.24,10.0,West,4.6,-,N/A,,Overcast,260,2012-10-04 17:37:00
1:44 PM,73.4,68.0,83,30.22,10.0,Variable,5.8,-,N/A,,Mostly Cloudy,0,2012-10-04 17:44:00
1:55 PM,74.1,67.3,79,30.22,10.0,WSW,5.8,-,0.00,,Overcast,250,2012-10-04 17:55:00
2:03 PM,73.4,68.0,83,30.22,10.0,West,6.9,-,N/A,,Overcast,260,2012-10-04 18:03:00
2:23 PM,75.2,68.0,78,30.22,10.0,Variable,4.6,-,N/A,,Mostly Cloudy,0,2012-10-04 18:23:00
2:28 PM,75.2,68.0,78,30.22,10.0,WNW,5.8,-,N/A,,Mostly Cloudy,290,2012-10-04 18:28:00
2:44 PM,75.2,68.0,78,30.21,10.0,WSW,6.9,-,N/A,,Mostly Cloudy,250,2012-10-04 18:44:00
2:55 PM,75.0,67.3,77,30.21,10.0,WNW,5.8,-,0.00,,Mostly Cloudy,290,2012-10-04 18:55:00
3:04 PM,75.2,66.2,73,30.21,10.0,West,6.9,-,N/A,,Mostly Cloudy,260,2012-10-04 19:04:00
3:55 PM,78.4,66.4,66,30.19,10.0,Variable,5.8,-,N/A,,Mostly Cloudy,0,2012-10-04 19:55:00
4:55 PM,79.3,65.3,62,30.18,10.0,NW,4.6,-,N/A,,Mostly Cloudy,310,2012-10-04 20:55:00
5:55 PM,78.4,65.1,63,30.18,10.0,Calm,Calm,-,N/A,,Mostly Cloudy,0,2012-10-04 21:55:00
6:55 PM,73.2,67.8,83,30.17,10.0,Calm,Calm,-,N/A,,Mostly Cloudy,0,2012-10-04 22:55:00
7:55 PM,69.1,67.3,94,30.18,10.0,Calm,Calm,-,N/A,,Mostly Cloudy,0,2012-10-04 23:55:00
8:55 PM,67.5,66.9,98,30.19,10.0,Calm,Calm,-,N/A,,Mostly Cloudy,0,2012-10-05 00:55:00
9:55 PM,66.7,66.7,100,30.20,10.0,Calm,Calm,-,N/A,Fog,Shallow Fog,0,2012-10-05 01:55:00
10:55 PM,65.3,65.3,100,30.22,7.0,Calm,Calm,-,N/A,,Overcast,0,2012-10-05 02:55:00
11:55 PM,64.4,64.4,100,30.22,10.0,Calm,Calm,-,N/A,Fog,Shallow Fog,0,2012-10-05 03:55:00